Regional Weather Roundup
Issued by NWS Little Rock, AR

Home | Current Version | Previous Version | Text Only | Print | Product List | Glossary On
Versions: 1 2 3 4 5 6 7 8 9 10 11 12 13 14 15 16 17 18 19 20 21 22 23 24 25 26 27 28 29 30 31
000
ASUS44 KLZK 230305
RWRLZK

WEATHER ROUNDUP FOR ARKANSAS
NATIONAL WEATHER SERVICE LITTLE ROCK AR
1000 PM CDT SUN OCT 22 2017

NOTE: "FAIR" INDICATES FEW OR NO CLOUDS BELOW 12,000 FEET WITH NO
SIGNIFICANT WEATHER AND/OR OBSTRUCTIONS TO VISIBILITY.

ARZ001-003-010-029-230400-
NORTHWEST ARKANSAS

CITY           SKY/WX    TMP DP  RH WIND       PRES   REMARKS
FAYETTEVILLE   CLEAR     44  44 100 CALM      30.12S
FORT SMITH     CLEAR     51  49  92 CALM      30.11F
HARRISON       CLOUDY    49  49 100 NW3       30.10F
BENTONVILLE    CLOUDY    47  45  93 CALM      30.14S
ROGERS         CLOUDY    48  46  93 W3        30.12F
SILOAM SPGS    CLEAR     46  43  89 CALM      30.13S
HIGHFILL       CLEAR     45  43  93 CALM      30.12  FOG
$$

ARZ004-005-016-230400-
NORTH CENTRAL ARKANSAS

CITY           SKY/WX    TMP DP  RH WIND       PRES   REMARKS
BATESVILLE     LGT RAIN  54  53  97 NW7       30.07R FOG
FLIPPIN        RAIN      51  48  89 N9        30.11S
MTN HOME       LGT RAIN  49  49 100 N8        30.09R
$$

ARZ040-041-230400-
WEST CENTRAL ARKANSAS

CITY           SKY/WX    TMP DP  RH WIND       PRES   REMARKS
MENA           CLEAR     46  46 100 CALM      30.12S
MOUNT IDA      CLEAR     50  47  89 CALM      30.09S
$$

ARZ009-017-025-026-028-230400-
NORTHEAST ARKANSAS

CITY           SKY/WX    TMP DP  RH WIND       PRES   REMARKS
JONESBORO      CLOUDY    56  55  97 NW6       30.01R
NEWPORT        CLOUDY    56  54  93 NW14      30.04S
WALNUT RIDGE   CLOUDY    55  53  93 NW12      30.03R
BLYTHEVILLE    CLOUDY    57  57 100 NW9       29.98S
$$

ARZ022-023-033-042-044-230400-
CENTRAL ARKANSAS

CITY           SKY/WX    TMP DP  RH WIND       PRES   REMARKS
LITTLE ROCK    CLOUDY    57  53  86 NW14      30.08S
N LITTLE ROCK    N/A     55  52  87 N7        30.10R
JACKSONVILLE   CLOUDY    57  51  80 NW8       30.07S
SEARCY         LGT RAIN  57  55  93 NW8       30.08R FOG
HOT SPRINGS    CLEAR     56  49  77 VRB3      30.11S
RUSSELLVILLE   CLEAR     53  47  79 CALM      30.11R
CLINTON        DRIZZLE   52  48  87 VRB5      30.10S
$$

ARZ036-230400-
EAST ARKANSAS

CITY           SKY/WX    TMP DP  RH WIND       PRES   REMARKS
WEST MEMPHIS   CLOUDY    58  58 100 NW5       30.00R
$$

ARZ050-053-066-070-073-230400-
SOUTHWEST ARKANSAS

CITY           SKY/WX    TMP DP  RH WIND       PRES   REMARKS
ARKADELPHIA    MOCLDY    59  49  69 NW8       30.11S
CAMDEN         CLOUDY    61  52  72 NW9       30.09S
TEXARKANA      CLEAR     55  50  83 NW3       30.12S
EL DORADO      CLOUDY    60  57  89 NW12      30.10R
DE QUEEN       CLEAR     49  49 100 CALM      30.11R
$$

ARZ056-057-069-230400-
SOUTHEAST ARKANSAS

CITY           SKY/WX    TMP DP  RH WIND       PRES   REMARKS
PINE BLUFF     CLOUDY    60  53  77 NW10      30.07R
STUTTGART      CLOUDY    58  54  86 NW13      30.06R
MONTICELLO     CLOUDY    61  55  81 NW6       30.07R

$$






USA.gov is the U.S. government's official web portal to all federal, state and local government web resources and services.